[[{"header":{"parameterUnit":"m.s-1","parameterCategory":1,"la1":30.2991,"la2":30.254,"lo1":-89.0895,"lo2":-89.0444,"dy":0.0017,"dx":0.0017,"nx":28,"ny":28,"refTime":"2025-07-11T21:00:00:Z","depth":0,"parameterNumber":2,"parameterNumberName":"U-component_of_WINDS"},"data":[0,0,0,0,0,0,0,0,0,0,0,0,0,0,0,0,0,0,0,0,0,0,0,0,0,0,0,0,0,0,0,0,0,0,0,0,0,0,0,0,0,0,0,0,0,0,0,0,0,0,0,0,0,0,0,0,0,0,2.124,2.1241,0,2.1318,2.1319,2.132,2.1302,2.13,2.1299,2.1298,2.1377,2.138,2.1383,0,0,0,0,0,0,0,0,0,0,0,0,0,2.1073,2.1076,2.124,2.1241,2.1242,2.1318,2.1319,2.132,2.1302,2.13,2.1299,2.1297,2.1376,2.138,2.1384,0,0,0,0,0,0,0,0,0,0,0,0,0,2.1148,2.1077,2.124,2.1242,2.1243,2.1318,2.1319,2.132,2.1303,2.13,2.1298,2.1296,2.1374,2.1379,2.1384,2.1461,0,0,2.14,2.1403,0,0,0,0,0,0,0,0,2.1143,2.1154,2.1241,2.1242,2.1244,2.1298,2.1289,2.1367,2.1303,2.128,2.1298,2.1295,2.1352,2.1359,2.1379,2.1465,2.1468,2.1401,2.1404,2.1406,2.1408,0,0,0,0,0,0,0,2.1138,2.115,2.1271,2.1242,2.1244,2.1238,2.1247,2.1304,2.1328,2.1282,2.1281,2.129,2.1352,2.1374,2.138,2.1469,2.1401,2.1405,2.1409,2.1411,2.1618,2.162,0,0,0,0,0,0,2.1132,2.1146,2.1268,2.1273,2.1187,2.1243,2.1252,2.1283,2.1327,2.1332,2.1292,2.1289,2.1366,2.1374,2.1383,2.1473,2.1406,2.1411,2.1414,2.1615,2.1618,2.1621,0,0,0,0,0,0,2.1129,2.1143,2.1265,2.1209,2.1224,2.1249,2.1283,2.1285,2.1306,2.1335,2.1339,2.1309,2.1364,2.1376,2.1441,2.1475,2.1413,2.1418,2.1613,2.1616,2.162,2.1654,0,0,0,0,0,0,2.1124,2.1142,2.1172,2.121,2.1228,2.1323,2.1285,2.1289,2.1316,2.1312,2.1352,2.1356,2.1363,2.1433,2.1446,2.1481,2.1422,2.161,2.1614,2.1618,2.165,2.1658,2.1666,0,0,0,0,0,2.1118,2.118,2.1174,2.1189,2.1266,2.1325,2.1335,2.1342,2.1319,2.1348,2.1366,2.1355,2.147,2.144,2.1454,2.1492,2.1607,2.1613,2.1618,2.1647,2.1657,2.1666,0,0,0,0,0,0,2.1146,2.1185,2.1179,2.1255,2.1287,2.1322,2.136,2.1353,2.1392,2.1387,2.1394,2.1403,2.1469,2.1487,2.1453,2.1566,2.1535,2.1543,2.1552,2.1562,2.1569,2.1563,2.1427,0,0,0,0,0,2.1161,2.1206,2.1238,2.1301,2.1318,2.1336,2.1362,2.1364,2.1397,2.1411,2.1433,2.1465,2.1508,2.1536,2.1577,2.1653,2.1659,2.1685,2.1693,2.1699,2.1706,2.1744,2.1755,2.1638,2.1638,2.1638,0,0,2.1192,2.1219,2.1248,2.1308,2.1332,2.1377,2.1347,2.1397,2.143,2.1418,2.148,2.1498,2.1534,2.1603,2.1635,2.162,2.174,2.1706,2.1711,2.1714,2.1751,2.1762,2.1771,2.1642,2.1641,2.1641,0,0,2.1272,2.1298,2.1353,2.1378,2.1415,2.1426,2.1439,2.1475,2.1486,2.1548,2.1539,2.1578,2.1653,2.1678,2.17,2.1786,2.1777,2.18,2.184,2.1877,2.1886,2.1894,2.1922,2.1932,2.1806,2.1807,2.1807,0,2.1306,2.1375,2.1381,2.1431,2.1456,2.1447,2.1501,2.1525,2.1574,2.1591,2.1574,2.1665,2.1689,2.1762,2.1783,2.1803,2.1816,2.1795,2.1884,2.1892,2.19,2.1926,2.1937,2.1809,2.1809,2.1808,2.1808,0,2.1413,2.1461,2.15,2.1546,2.1576,2.1628,2.1641,2.167,2.167,2.1682,2.1744,2.1772,2.1817,2.1835,2.1836,2.1908,2.1897,2.1882,2.1851,2.1913,2.1938,2.1949,2.1812,2.1811,2.1811,2.181,0,0,2.1513,2.1561,2.1575,2.1595,2.1634,2.167,2.1721,2.1764,2.1788,2.1822,2.1862,2.1924,2.1909,2.1935,2.1938,2.197,2.2033,2.1951,2.1952,2.1963,2.2111,2.212,2.2132,2.2027,2.2029,2.2031,2.2107,0,2.1595,2.1683,2.1689,2.1768,2.181,2.1801,2.1844,2.1872,2.1885,2.1921,2.1935,2.1977,2.1956,2.1971,2.2003,2.2018,2.2062,2.2013,2.2063,2.2065,2.2052,2.2146,2.2157,2.2227,2.2117,2.2119,2.212,0,2.1702,2.1737,2.182,2.1851,2.1869,2.1907,2.1946,2.1982,2.2013,2.2019,2.2046,2.2044,2.2093,2.2061,2.2128,2.2094,2.2115,2.2125,2.2128,2.2132,2.2095,2.2149,2.225,2.226,2.2136,2.2135,2.2133,0,2.1762,2.1831,2.1889,2.1907,2.1945,2.1971,2.1988,2.2017,2.2042,2.2075,2.2091,2.2131,2.2152,2.2182,2.2189,2.2165,2.2255,2.2224,2.226,2.2259,2.2278,2.2276,2.2381,2.2295,2.2295,2.2294,2.2294,0,2.1851,2.1902,2.1917,2.1952,2.2007,2.2013,2.2068,2.2083,2.2108,2.2144,2.2139,2.2174,2.2183,2.2218,2.2225,2.2277,2.2288,2.2293,2.2293,2.2292,2.2291,2.2304,2.2299,2.2297,2.2297,2.2296,2.2296,0,2.1929,2.1941,2.2003,2.2033,2.2041,2.2081,2.2106,2.2139,2.215,2.2196,2.2207,2.2225,2.2266,2.2277,2.2327,2.2331,2.2392,2.2389,2.2381,2.2381,2.2415,2.2411,2.253,2.2545,2.2451,2.2452,2.2453,0,2.1984,2.2022,2.2056,2.208,2.2097,2.2137,2.2161,2.2168,2.2194,2.223,2.2258,2.2298,2.2331,2.2397,2.2414,2.2451,2.2448,2.2487,2.2453,2.245,2.2445,2.2442,2.2444,2.2493,2.2494,2.2495,2.2496,0,2.2079,2.2082,2.2118,2.2156,2.2185,2.2215,2.2243,2.2263,2.2273,2.2302,2.2344,2.2369,2.2419,2.2458,2.2496,2.2512,2.2505,2.2506,2.2516,2.2514,2.2506,2.2508,2.2396,2.2503,2.2502,2.2502,2.2501,2.2501,2.2145,2.2177,2.2205,2.2244,2.2266,2.2292,2.2323,2.2338,2.2373,2.2413,2.2415,2.246,2.2487,2.2536,2.2554,2.2588,2.2576,2.2591,2.2594,2.2597,2.2599,2.2503,2.2595,2.2595,2.2595,2.2595,2.2594,0,2.2237,2.2254,2.229,2.2329,2.236,2.235,2.238,2.2406,2.2445,2.2471,2.2503,2.2549,2.2587,2.2606,2.2642,2.2666,2.2663,2.2675,2.2672,2.2676,2.2609,2.2595,2.2676,2.2676,2.2676,2.2676,2.2676,2.2676,2.2289,2.2342,2.2348,2.2411,2.2427,2.2471,2.2488,2.2511,2.2532,2.2584,2.2615,2.2626,2.2648,2.2686,2.272,2.2724,2.2737,2.275,2.2752,2.2689,2.2681,2.2673,2.266,2.2753,2.2753,2.2816,2.2816,2.2817]},{"header":{"parameterUnit":"m.s-1","parameterCategory":1,"la1":30.2991,"la2":30.254,"lo1":-89.0895,"lo2":-89.0444,"dy":0.0017,"dx":0.0017,"nx":28,"ny":28,"refTime":"2025-07-11T21:00:00:Z","depth":0,"parameterNumber":3,"parameterNumberName":"V-component_of_WINDS"},"data":[0,0,0,0,0,0,0,0,0,0,0,0,0,0,0,0,0,0,0,0,0,0,0,0,0,0,0,0,0,0,0,0,0,0,0,0,0,0,0,0,0,0,0,0,0,0,0,0,0,0,0,0,0,0,0,0,0,0,3.9972,3.9972,0,3.9991,3.9991,3.9991,3.9925,3.9923,3.9921,3.9919,3.9936,3.9938,3.994,0,0,0,0,0,0,0,0,0,0,0,0,0,3.9875,3.9877,3.9972,3.9972,3.9972,3.9991,3.9991,3.9991,3.9925,3.9923,3.992,3.9918,3.9935,3.9938,3.9941,0,0,0,0,0,0,0,0,0,0,0,0,0,3.9908,3.9878,3.9972,3.9942,3.9939,3.9991,3.9991,3.9991,3.9926,3.9923,3.992,3.9917,3.9934,3.9938,3.9941,4.0021,0,0,3.9951,3.9953,0,0,0,0,0,0,0,0,3.9906,3.9911,3.9946,3.9944,3.9941,3.9952,3.9963,4.0001,3.9927,3.9931,3.9919,3.9916,3.9944,3.9946,3.9956,4.0022,4.0023,3.9952,3.9954,3.9955,3.9956,0,0,0,0,0,0,0,3.9904,3.991,3.9979,3.9947,3.9944,3.9926,3.9927,3.997,3.9954,3.993,3.9926,3.9929,3.9942,3.9953,3.9956,4.0023,3.9952,3.9955,3.9957,3.9958,4.0154,4.0157,0,0,0,0,0,0,3.9906,3.9909,3.9979,3.998,3.9916,3.993,3.9932,3.9952,3.9953,3.995,3.9931,3.9926,3.9949,3.9952,3.9956,4.0049,3.9955,3.9958,3.996,4.0151,4.0154,4.0158,0,0,0,0,0,0,3.9904,3.9913,3.9978,3.9943,3.995,3.9935,3.9958,3.9954,3.9965,3.9954,3.995,3.9946,3.9946,3.9951,4.0005,4.0048,3.996,3.9963,4.0147,4.0152,4.0156,4.0235,0,0,0,0,0,0,3.9902,3.9913,3.9944,3.9944,3.9952,4.0028,3.9961,3.9956,3.9971,3.9964,3.9967,3.9964,3.9944,4.0001,4.0009,4.0051,3.9966,4.0143,4.0149,4.0155,4.0229,4.0242,4.0254,0,0,0,0,0,3.9899,3.9966,3.9946,3.9955,3.9991,4.0031,4.0035,4.0012,3.9975,4.0006,3.9998,3.9964,4.0043,4.0007,4.0015,4.006,4.014,4.0147,4.0154,4.0223,4.0239,4.0253,0,0,0,0,0,0,3.997,3.9965,3.9943,4.0013,4.0023,4.0019,4.0057,4.003,4.005,4.0042,4.0012,4.0013,4.0071,4.0071,4.0031,4.0136,4.0085,4.0094,4.0134,4.015,4.0162,4.016,3.9969,0,0,0,0,0,3.9995,4.0028,4.0021,4.0083,4.0089,4.0073,4.0089,4.007,4.0079,4.0082,4.0079,4.0088,4.0114,4.0132,4.0156,4.0229,4.0227,4.0263,4.0276,4.0286,4.0294,4.033,4.0345,4.0181,4.0181,4.0181,0,0,4.0044,4.0045,4.0068,4.0097,4.0103,4.0136,4.0076,4.0115,4.0139,4.0088,4.0138,4.0136,4.0144,4.0207,4.0234,4.0208,4.0339,4.0295,4.0303,4.0305,4.0339,4.0354,4.0368,4.0186,4.0185,4.0184,0,0,4.0152,4.0157,4.0208,4.0215,4.0224,4.0212,4.0224,4.0225,4.0222,4.0272,4.0233,4.0261,4.0308,4.0314,4.0324,4.0433,4.0401,4.0441,4.0506,4.0541,4.0554,4.0566,4.0602,4.0616,4.0449,4.045,4.045,0,4.0212,4.0262,4.0237,4.0278,4.0291,4.0247,4.0297,4.0304,4.0321,4.033,4.0301,4.0357,4.036,4.0423,4.0449,4.0459,4.047,4.044,4.0555,4.0566,4.0576,4.0611,4.0625,4.0454,4.0454,4.0453,4.0453,0,4.0335,4.037,4.041,4.0427,4.0445,4.049,4.0471,4.0491,4.0471,4.0462,4.0512,4.0514,4.0536,4.055,4.0531,4.061,4.0593,4.056,4.0507,4.0597,4.0629,4.0642,4.0461,4.0459,4.0458,4.0457,0,0,4.0488,4.049,4.0505,4.0511,4.0517,4.0543,4.0586,4.0608,4.0626,4.0638,4.0672,4.0712,4.0681,4.0692,4.0673,4.0705,4.0788,4.0667,4.0667,4.0688,4.0873,4.0896,4.0912,4.0768,4.077,4.0772,4.0872,0,4.0592,4.0665,4.0643,4.0717,4.0748,4.0706,4.0742,4.0749,4.0742,4.0767,4.0758,4.0786,4.0744,4.075,4.078,4.0772,4.0824,4.0764,4.0797,4.0799,4.0795,4.0929,4.0955,4.1048,4.0884,4.0886,4.0888,0,4.0723,4.074,4.0817,4.0816,4.0828,4.0862,4.0879,4.0904,4.0911,4.0903,4.0915,4.0889,4.0929,4.0877,4.0931,4.0891,4.0903,4.0901,4.0904,4.0905,4.0847,4.0932,4.1078,4.1091,4.0908,4.0906,4.0905,0,4.0823,4.0866,4.0917,4.0924,4.0925,4.0949,4.0951,4.0955,4.0969,4.0984,4.0993,4.1013,4.1024,4.1039,4.1019,4.0983,4.1075,4.1022,4.1068,4.1069,4.1088,4.1087,4.1236,4.11,4.1099,4.1099,4.1099,0,4.0941,4.0988,4.0962,4.0993,4.1045,4.1019,4.1071,4.1067,4.1071,4.11,4.1065,4.1092,4.1064,4.1089,4.1073,4.1119,4.1125,4.1118,4.1113,4.112,4.1121,4.1126,4.1119,4.1103,4.1102,4.1101,4.1101,0,4.1061,4.1046,4.1098,4.1095,4.1095,4.1133,4.113,4.1158,4.1148,4.1184,4.1191,4.1176,4.1202,4.1184,4.1211,4.12,4.126,4.1247,4.1258,4.1254,4.13,4.1295,4.1457,4.1476,4.1329,4.133,4.1331,0,4.1136,4.1172,4.1172,4.1189,4.1193,4.1221,4.1235,4.1211,4.1227,4.1236,4.1262,4.1286,4.1304,4.1349,4.1339,4.1359,4.1345,4.14,4.1348,4.1353,4.1343,4.1341,4.1343,4.141,4.1412,4.1414,4.1415,0,4.127,4.126,4.1282,4.1302,4.132,4.1334,4.1345,4.136,4.1336,4.1355,4.1382,4.1396,4.1424,4.1447,4.1464,4.1464,4.1435,4.1432,4.1443,4.145,4.1454,4.145,4.1285,4.1428,4.1426,4.1425,4.1425,4.1424,4.1368,4.1397,4.1402,4.1427,4.1433,4.1444,4.1469,4.1462,4.1485,4.1505,4.1489,4.1521,4.1525,4.1544,4.1548,4.1572,4.1549,4.1566,4.157,4.1574,4.158,4.1452,4.1575,4.1575,4.1574,4.1574,4.1574,0,4.1498,4.1498,4.1522,4.1538,4.1558,4.153,4.1541,4.1558,4.1587,4.1594,4.1612,4.1642,4.1665,4.1657,4.1677,4.1697,4.1684,4.1703,4.17,4.17,4.16,4.1587,4.1713,4.1713,4.1713,4.1713,4.1713,4.1713,4.1567,4.1614,4.1605,4.1654,4.1654,4.1685,4.1693,4.1702,4.1707,4.1743,4.1762,4.1757,4.1757,4.1776,4.1795,4.1792,4.18,4.1824,4.1816,4.1722,4.1708,4.1695,4.1682,4.1826,4.1826,4.1914,4.1915,4.1915]}]]